Location: Niverville
(49.6028°N, 97.0419°W)
Time: 21:12:24
(UTC-05:00)

Amateur Radio Satellites - All Passes

Search period start: 20 October 2014 20:42
Search period end: 21 October 2014 20:42
Location: Niverville, 49.6028°N, 97.0419°W

Satellite Date Start Highest point End Downlink Frequencies (MHz)
Time Altitude Azimuth
AO-40 20 Oct 20:50:46 23:31:17 25° 201° (SSW) 03:43:22 Beacon 2401.320
UKube-1 20 Oct 21:07:38 21:11:11 25° 63° (ENE) 21:14:46 145.840 MHz, 145.915 MHz
SO-50 20 Oct 21:29:42 21:33:45 26° 31° (NNE) 21:37:50 436.795 FM
UOSAT-12 20 Oct 21:37:56 21:40:23 14° 8° (N) 21:42:50 437.025 FM, 437.400 FM
FUNcube-1 20 Oct 21:39:32 21:43:01 22° 62° (ENE) 21:46:28 145.950 - 145.970 MHz USB
STRAND 1 20 Oct 21:49:52 21:54:10 27° 299° (WNW) 21:58:27 ?
ISS 20 Oct 21:52:28 21:54:54 19° 220° (SW) 21:57:18 145.800 FM
Oscar 11 20 Oct 21:52:32 21:56:46 54° 71° (ENE) 22:01:00 145.825 FM, Beacon 2401.500 USB
HO-68 20 Oct 22:13:00 22:19:51 47° 261° (W) 22:26:46 435.675 MHz FM
KITSAT 1 20 Oct 22:14:52 22:23:00 79° 51° (NE) 22:31:05 435.175 FM
ZACube-1 20 Oct 22:28:37 22:33:08 57° 71° (ENE) 22:37:37 437.345 MHz
UKube-1 20 Oct 22:43:04 22:47:12 42° 261° (W) 22:51:22 145.840 MHz, 145.915 MHz
RS-15 20 Oct 23:03:10 23:12:55 39° 109° (ESE) 23:22:37 29.354 - 29.394 USB, Beacon 29.352 USB
SO-50 20 Oct 23:10:00 23:14:50 81° 232° (SW) 23:19:44 436.795 FM
FUNcube-1 20 Oct 23:14:33 23:19:04 55° 260° (W) 23:23:33 145.950 - 145.970 MHz USB
UOSAT-12 20 Oct 23:18:03 23:22:06 27° 32° (NNE) 23:26:06 437.025 FM, 437.400 FM
Oscar 11 20 Oct 23:30:14 23:33:17 19° 269° (W) 23:36:20 145.825 FM, Beacon 2401.500 USB
ZACube-1 21 Oct 00:06:34 00:09:53 19° 269° (W) 00:13:11 437.345 MHz
KITSAT 1 21 Oct 00:10:58 00:17:42 30° 252° (WSW) 00:24:24 435.175 FM
MaSat-1 21 Oct 00:46:18 00:49:01 17° 108° (ESE) 00:51:35 437.345 MHz
SO-50 21 Oct 00:52:13 00:54:42 14° 251° (WSW) 00:57:11 436.795 FM
UOSAT-12 21 Oct 00:57:59 01:02:44 75° 233° (SW) 01:07:24 437.025 FM, 437.400 FM
RS-15 21 Oct 01:13:32 01:24:30 75° 314° (NW) 01:35:33 29.354 - 29.394 USB, Beacon 29.352 USB
JAS-1B 21 Oct 01:28:54 01:31:05 12° 85° (E) 01:33:21 435.800 - 435.900 CW/SSB
AO-Echo 21 Oct 01:59:23 02:00:32 11° 83° (E) 02:01:40 ?
MaSat-1 21 Oct 02:20:24 02:24:31 59° 304° (WNW) 02:28:13 437.345 MHz
Oscar 19 21 Oct 02:20:56 02:25:20 28° 94° (E) 02:29:42 437.125 CW, 437.150 USB
AO-27 21 Oct 02:28:42 02:31:42 15° 87° (E) 02:34:41 436.795 MHz FM
UOSAT-12 21 Oct 02:40:14 02:42:04 12° 252° (WSW) 02:43:52 437.025 FM, 437.400 FM
Oscar 16 21 Oct 03:05:33 03:10:41 67° 103° (ESE) 03:15:46 437.025 USB, Beacon 2401.1428
JAS-1B 21 Oct 03:16:32 03:22:45 65° 103° (ESE) 03:30:05 435.800 - 435.900 CW/SSB
Gurwin Techsat 1B 21 Oct 03:17:21 03:21:27 22° 91° (E) 03:25:31 435.225 FM
Uribyol 2 21 Oct 03:17:25 03:22:20 39° 97° (E) 03:27:11 436.500 FM
ITAMSAT 1 21 Oct 03:22:18 03:27:15 41° 98° (E) 03:32:10 435.822 SSB
RS-15 21 Oct 03:28:47 03:38:51 40° 345° (NNW) 03:49:07 29.354 - 29.394 USB, Beacon 29.352 USB
TMSAT-1 21 Oct 03:31:25 03:35:30 22° 91° (E) 03:39:34 436.925 FM
AO-Echo 21 Oct 03:34:58 03:40:15 68° 102° (ESE) 03:45:33 ?
MaSat-1 21 Oct 03:59:52 04:00:56 11° 322° (NW) 04:01:59 437.345 MHz
Oscar 19 21 Oct 04:00:00 04:04:53 46° 293° (WNW) 04:09:45 437.125 CW, 437.150 USB
AO-27 21 Oct 04:06:39 04:11:56 87° 286° (WNW) 04:17:10 436.795 MHz FM
OPAL 21 Oct 04:15:14 04:19:20 25° 57° (ENE) 04:23:25 ?
AO-7 21 Oct 04:32:02 04:38:21 23° 89° (E) 04:44:38 29.400 - 29.500 MHz
Oscar 16 21 Oct 04:45:45 04:49:35 22° 302° (WNW) 04:53:25 437.025 USB, Beacon 2401.1428
Sapphire 21 Oct 04:46:14 04:50:04 20° 107° (ESE) 04:53:54 437.095 MHz 1200 baud AX-25 AFSK
Gurwin Techsat 1B 21 Oct 04:56:35 05:01:51 62° 290° (WNW) 05:07:05 435.225 FM
Uribyol 2 21 Oct 04:57:03 05:01:46 35° 296° (WNW) 05:06:26 436.500 FM
ITAMSAT 1 21 Oct 05:02:00 05:06:40 34° 297° (WNW) 05:11:20 435.822 SSB
JAS-1B 21 Oct 05:08:00 05:13:09 29° 301° (WNW) 05:18:57 435.800 - 435.900 CW/SSB
PCSat 21 Oct 05:08:08 05:12:51 31° 112° (ESE) 05:17:35 145.825 MHz
TMSAT-1 21 Oct 05:10:36 05:15:52 62° 290° (WNW) 05:21:05 436.925 FM
AO-Echo 21 Oct 05:14:33 05:18:34 23° 301° (WNW) 05:22:36 ?
Uosat F 21 Oct 05:16:34 05:20:58 29° 95° (E) 05:25:19 435.120 FM
RS-15 21 Oct 05:44:19 05:54:35 42° 19° (NNE) 06:05:07 29.354 - 29.394 USB, Beacon 29.352 USB
AO-27 21 Oct 05:47:30 05:50:44 17° 306° (NW) 05:53:58 436.795 MHz FM
OPAL 21 Oct 05:52:46 05:57:52 60° 256° (WSW) 06:02:57 ?
STRAND 1 21 Oct 05:53:17 05:56:58 20° 57° (ENE) 06:00:40 ?
Hamsat 21 Oct 06:01:42 06:02:51 11° 86° (E) 06:04:00 145.90 MHz
JAS-2 21 Oct 06:03:38 06:10:19 32° 91° (E) 06:17:09 435.800 - 435.900 CW/SSB, 435.910 FM
AO-7 21 Oct 06:23:52 06:32:14 90° 111° (ESE) 06:40:35 29.400 - 29.500 MHz
Sapphire 21 Oct 06:27:27 06:32:53 79° 307° (NW) 06:38:21 437.095 MHz 1200 baud AX-25 AFSK
Gurwin Techsat 1B 21 Oct 06:38:39 06:40:49 13° 310° (NW) 06:43:00 435.225 FM
PCSat 21 Oct 06:50:45 06:56:03 53° 312° (NW) 07:01:23 145.825 MHz
TMSAT-1 21 Oct 06:52:38 06:54:47 13° 310° (NW) 06:56:57 436.925 FM
Uosat F 21 Oct 06:55:07 06:59:55 45° 293° (WNW) 07:04:42 435.120 FM
STRAND 1 21 Oct 07:30:30 07:35:38 74° 256° (WSW) 07:40:48 ?
Hamsat 21 Oct 07:35:13 07:39:25 86° 285° (WNW) 07:43:37 145.90 MHz
JAS-2 21 Oct 07:48:17 07:55:47 70° 290° (WNW) 08:03:35 435.800 - 435.900 CW/SSB, 435.910 FM
RS-15 21 Oct 07:57:32 08:08:41 82° 49° (NE) 08:20:17 29.354 - 29.394 USB, Beacon 29.352 USB
Sapphire 21 Oct 08:12:57 08:17:11 23° 329° (NNW) 08:21:26 437.095 MHz 1200 baud AX-25 AFSK
AO-7 21 Oct 08:17:26 08:24:08 29° 313° (NW) 08:30:51 29.400 - 29.500 MHz
SO-67 21 Oct 08:30:13 08:33:38 56° 100° (E) 08:37:02 435.3500 MHz FM
PCSat 21 Oct 08:37:02 08:40:43 18° 336° (NNW) 08:44:24 145.825 MHz
Saudisat 1A 21 Oct 08:44:13 08:47:17 19° 113° (ESE) 08:50:22 436.775 MHz
Hamsat 21 Oct 09:13:08 09:14:43 12° 303° (WNW) 09:16:17 145.90 MHz
STRAND 1 21 Oct 09:14:17 09:15:45 11° 276° (W) 09:17:13 ?
JAS-2 21 Oct 09:34:34 09:39:40 20° 310° (NW) 09:44:57 435.800 - 435.900 CW/SSB, 435.910 FM
HO-68 21 Oct 09:35:46 09:41:53 29° 93° (E) 09:47:57 435.675 MHz FM
Sapphire 21 Oct 10:00:27 10:02:43 12° 355° (N) 10:04:59 437.095 MHz 1200 baud AX-25 AFSK
SO-67 21 Oct 10:04:31 10:06:13 13° 298° (WNW) 10:07:54 435.3500 MHz FM
RS-15 21 Oct 10:10:31 10:20:05 35° 253° (WSW) 10:30:01 29.354 - 29.394 USB, Beacon 29.352 USB
AO-7 21 Oct 10:12:48 10:14:12 11° 338° (NNW) 10:15:35 29.400 - 29.500 MHz
Saudisat 1A 21 Oct 10:22:01 10:26:24 69° 312° (NW) 10:30:50 436.775 MHz
PCSat 21 Oct 10:24:14 10:26:26 12° 2° (N) 10:28:38 145.825 MHz
UKube-1 21 Oct 10:27:04 10:30:37 24° 94° (E) 10:34:09 145.840 MHz, 145.915 MHz
MaSat-1 21 Oct 10:27:42 10:30:35 85° 59° (ENE) 10:33:09 437.345 MHz
FUNcube-1 21 Oct 11:00:01 11:03:22 21° 92° (E) 11:06:38 145.950 - 145.970 MHz USB
Oscar 11 21 Oct 11:11:45 11:16:03 60° 101° (E) 11:20:18 145.825 FM, Beacon 2401.500 USB
HO-68 21 Oct 11:23:00 11:30:09 69° 293° (WNW) 11:37:16 435.675 MHz FM
Sapphire 21 Oct 11:45:02 11:48:30 17° 22° (NNE) 11:51:58 437.095 MHz 1200 baud AX-25 AFSK
ZACube-1 21 Oct 11:49:56 11:54:17 66° 102° (ESE) 11:58:29 437.345 MHz
UKube-1 21 Oct 12:02:50 12:07:00 43° 292° (WNW) 12:11:07 145.840 MHz, 145.915 MHz
Saudisat 1A 21 Oct 12:03:33 12:06:45 19° 334° (NNW) 12:09:58 436.775 MHz
Oscar 19 21 Oct 12:06:40 12:08:37 12° 51° (NE) 12:10:33 437.125 CW, 437.150 USB
PCSat 21 Oct 12:08:00 12:12:03 21° 28° (NNE) 12:16:05 145.825 MHz
JAS-1B 21 Oct 12:20:25 12:23:41 16° 51° (NE) 12:26:54 435.800 - 435.900 CW/SSB
FUNcube-1 21 Oct 12:35:51 12:40:00 45° 291° (WNW) 12:44:02 145.950 - 145.970 MHz USB
Oscar 11 21 Oct 12:48:52 12:51:49 18° 300° (WNW) 12:54:46 145.825 FM, Beacon 2401.500 USB
Oscar 16 21 Oct 12:48:58 12:53:08 25° 60° (ENE) 12:57:18 437.025 USB, Beacon 2401.1428
KITSAT 1 21 Oct 12:49:12 12:55:43 28° 106° (ESE) 13:02:15 435.175 FM
Uribyol 2 21 Oct 13:02:43 13:06:01 17° 54° (NE) 13:09:19 436.500 FM
ITAMSAT 1 21 Oct 13:07:38 13:11:01 18° 55° (NE) 13:14:24 435.822 SSB
Gurwin Techsat 1B 21 Oct 13:07:50 13:08:46 10° 48° (NE) 13:09:42 435.225 FM
HO-68 21 Oct 13:11:57 13:16:41 19° 315° (NW) 13:21:24 435.675 MHz FM
AO-Echo 21 Oct 13:15:17 13:18:59 22° 58° (ENE) 13:22:48 ?
TMSAT-1 21 Oct 13:21:46 13:22:32 10° 48° (NE) 13:23:19 436.925 FM
ZACube-1 21 Oct 13:27:24 13:30:11 17° 301° (WNW) 13:32:56 437.345 MHz
Sapphire 21 Oct 13:28:03 13:33:19 46° 46° (NE) 13:38:32 437.095 MHz 1200 baud AX-25 AFSK
SO-50 21 Oct 13:32:36 13:33:46 11° 107° (ESE) 13:34:56 436.795 FM
Oscar 19 21 Oct 13:41:54 13:46:59 62° 70° (ENE) 13:52:05 437.125 CW, 437.150 USB
Saudisat 1A 21 Oct 13:46:25 13:48:01 12° 359° (N) 13:49:37 436.775 MHz
AO-7 21 Oct 13:47:47 13:52:22 16° 34° (NE) 13:56:58 29.400 - 29.500 MHz
AO-27 21 Oct 13:50:29 13:55:12 36° 64° (ENE) 13:59:57 436.795 MHz FM
PCSat 21 Oct 13:51:02 13:56:29 68° 51° (NE) 14:01:52 145.825 MHz
JAS-1B 21 Oct 14:07:34 14:13:33 80° 72° (ENE) 14:19:15 435.800 - 435.900 CW/SSB
Oscar 16 21 Oct 14:27:05 14:32:10 56° 259° (W) 14:37:16 437.025 USB, Beacon 2401.1428
ISS 21 Oct 14:37:37 14:39:40 15° 138° (SE) 14:41:43 145.800 FM
Uribyol 2 21 Oct 14:39:33 14:44:47 89° 74° (ENE) 14:50:04 436.500 FM
Oscar 10/S400 21 Oct 14:40:04 14:54:47 26° 149° (SSE) 15:14:37 145.825 - 145.975 CW/USB, Beacon 145.810 USB
KITSAT 1 21 Oct 14:42:12 14:50:19 83° 308° (NW) 14:58:28 435.175 FM
Gurwin Techsat 1B 21 Oct 14:42:28 14:47:35 51° 68° (ENE) 14:52:44 435.225 FM
ITAMSAT 1 21 Oct 14:44:37 14:49:50 88° 254° (WSW) 14:55:07 435.822 SSB
AO-Echo 21 Oct 14:52:30 14:57:19 63° 259° (WSW) 15:02:21 ?
TMSAT-1 21 Oct 14:56:11 15:01:18 51° 68° (ENE) 15:06:26 436.925 FM
Uosat F 21 Oct 14:59:12 15:01:01 12° 50° (NE) 15:02:51 435.120 FM
SO-50 21 Oct 15:08:55 15:13:26 72° 127° (SE) 15:18:05 436.795 FM
Sapphire 21 Oct 15:11:42 15:16:40 37° 246° (WSW) 15:21:37 437.095 MHz 1200 baud AX-25 AFSK
UOSAT-12 21 Oct 15:16:18 15:17:53 12° 108° (ESE) 15:19:29 437.025 FM, 437.400 FM
Oscar 19 21 Oct 15:22:54 15:26:46 21° 269° (W) 15:30:39 437.125 CW, 437.150 USB
Saudisat 1A 21 Oct 15:26:18 15:29:20 18° 23° (NNE) 15:32:21 436.775 MHz
AO-27 21 Oct 15:29:51 15:34:41 38° 263° (W) 15:39:35 436.795 MHz FM
PCSat 21 Oct 15:35:11 15:39:26 24° 251° (WSW) 15:43:40 145.825 MHz
AO-7 21 Oct 15:35:27 15:43:15 48° 58° (ENE) 15:51:05 29.400 - 29.500 MHz
JAS-1B 21 Oct 16:01:23 16:05:02 17° 272° (W) 16:08:35 435.800 - 435.900 CW/SSB
ISS 21 Oct 16:12:34 16:15:53 66° 156° (SSE) 16:19:13 145.800 FM
Uribyol 2 21 Oct 16:22:08 16:25:00 15° 273° (W) 16:27:54 436.500 FM
JAS-2 21 Oct 16:22:17 16:26:44 21° 51° (NE) 16:31:34 435.800 - 435.900 CW/SSB, 435.910 FM
Gurwin Techsat 1B 21 Oct 16:23:23 16:27:50 27° 267° (W) 16:32:19 435.225 FM
ITAMSAT 1 21 Oct 16:27:25 16:30:07 14° 273° (W) 16:32:50 435.822 SSB
Uosat F 21 Oct 16:33:54 16:38:51 62° 70° (ENE) 16:43:51 435.120 FM
TMSAT-1 21 Oct 16:37:02 16:41:29 27° 267° (W) 16:45:59 436.925 FM
KITSAT 1 21 Oct 16:39:43 16:46:54 34° 334° (NNW) 16:54:07 435.175 FM
SO-50 21 Oct 16:50:32 16:54:27 27° 328° (NNW) 16:58:28 436.795 FM
UOSAT-12 21 Oct 16:52:33 16:57:11 73° 127° (SE) 17:01:56 437.025 FM, 437.400 FM
Hamsat 21 Oct 16:58:46 17:01:15 15° 59° (ENE) 17:03:43 145.90 MHz
Saudisat 1A 21 Oct 17:05:24 17:09:47 58° 45° (NE) 17:14:09 436.775 MHz
AO-7 21 Oct 17:28:07 17:36:04 50° 259° (W) 17:44:05 29.400 - 29.500 MHz
ISS 21 Oct 17:49:21 17:52:40 59° 356° (N) 17:56:00 145.800 FM
OPAL 21 Oct 17:58:49 18:02:49 24° 95° (E) 18:06:47 ?
JAS-2 21 Oct 18:04:54 18:10:49 89° 74° (ENE) 18:17:36 435.800 - 435.900 CW/SSB, 435.910 FM
Uosat F 21 Oct 18:14:22 18:18:05 21° 269° (W) 18:21:49 435.120 FM
HO-68 21 Oct 18:28:23 18:29:43 11° 34° (NNE) 18:31:03 435.675 MHz FM
Hamsat 21 Oct 18:32:30 18:36:42 71° 258° (WSW) 18:40:55 145.90 MHz
UOSAT-12 21 Oct 18:33:46 18:37:48 27° 328° (NNW) 18:41:53 437.025 FM, 437.400 FM
SO-50 21 Oct 18:34:09 18:36:34 14° 353° (N) 18:39:01 436.795 FM
KITSAT 1 21 Oct 18:38:36 18:45:00 25° 3° (N) 18:51:24 435.175 FM
Saudisat 1A 21 Oct 18:45:34 18:49:02 23° 245° (WSW) 18:52:30 436.775 MHz
SO-67 21 Oct 19:06:56 19:10:06 36° 70° (ENE) 19:13:18 435.3500 MHz FM
ISS 21 Oct 19:26:12 19:29:33 83° 16° (NNE) 19:32:55 145.800 FM
STRAND 1 21 Oct 19:37:04 19:41:29 28° 94° (E) 19:45:51 ?
OPAL 21 Oct 19:37:10 19:42:02 53° 294° (WNW) 19:46:50 ?
JAS-2 21 Oct 19:53:05 19:57:02 18° 277° (W) 20:01:18 435.800 - 435.900 CW/SSB, 435.910 FM
HO-68 21 Oct 20:09:03 20:15:25 36° 57° (ENE) 20:21:49 435.675 MHz FM
SO-50 21 Oct 20:15:59 20:19:01 17° 18° (NNE) 20:22:06 436.795 FM
UOSAT-12 21 Oct 20:17:02 20:19:30 14° 352° (N) 20:21:58 437.025 FM, 437.400 FM
Oscar 11 21 Oct 20:37:56 20:39:36 12° 56° (NE) 20:41:17 145.825 FM, Beacon 2401.500 USB
